GW0870 Weather Reports


time (UTC)temp
C
wind
direction
speed
KPH
gust
KPH
rain 1hr
cm
rain 24hr
cm
rain mn
cm
humidity
%
barometer
mb
20260906090051 21 0 0.0 0.0 0.00 1.30 0.00 95 1011.2
20260906084547 21 0 0.0 0.0 0.00 1.30 0.00 95 1011.2
20260906083053 21 0 0.0 0.0 0.00 1.30 0.00 95 1011.2
20260906081554 21 0 0.0 0.0 0.00 1.30 0.00 95 1011.2
20260906080055 21 0 0.0 0.0 0.00 1.30 0.00 95 1011.1
20260906074554 21 0 0.0 0.0 0.00 1.30 0.00 95 1010.9
20260906073054 21 0 0.0 0.0 0.00 1.30 0.00 95 1010.8
20260906071556 21 0 0.0 0.0 0.00 1.30 0.00 95 1011.0
20260906070059 21 0 0.0 0.0 0.00 1.30 0.00 95 1011.1
20260906064552 21 0 0.0 0.0 0.00 1.30 0.00 94 1011.2
20260906063052 21 0 0.0 0.0 0.00 1.30 0.00 95 1011.2
20260906061554 21 0 0.0 0.0 0.00 1.30 0.00 95 1011.3
20260906060100 21 0 0.0 0.0 0.00 1.30 0.00 95 1011.3
20260906054557 21 0 0.0 0.0 0.00 1.30 0.00 95 1011.5
20260906053050 21 0 0.0 0.0 0.00 1.30 0.00 95 1011.7
20260906051555 21 0 0.0 0.0 0.00 1.30 0.00 94 1011.8
20260906050114 22 0 0.0 0.0 0.00 1.30 0.00 95 1011.9
20260906044554 21 0 0.0 0.0 0.00 1.30 0.00 94 1012.2
20260906043058 21 0 0.0 0.0 0.00 1.30 0.00 94 1012.2
20260906041553 22 0 0.0 0.0 0.00 1.30 0.00 94 1012.4
20260906040121 22 0 0.0 0.0 0.00 1.30 0.00 94 1012.4
20260906034601 22 0 0.0 0.0 0.00 1.30 1.30 94 1012.5
20260906033058 22 0 0.0 0.0 0.00 1.30 1.30 94 1012.5
20260906031555 22 0 0.0 0.0 0.00 1.30 1.30 94 1012.5
20260906030054 22 0 0.0 0.0 0.00 1.30 1.30 94 1012.5
20260906024602 22 0 0.0 0.0 0.00 1.30 1.30 94 1012.4
20260906023052 22 0 0.0 0.0 0.00 1.30 1.30 94 1012.4
20260906021603 22 0 0.0 3.2 0.00 1.30 1.30 94 1012.5
20260906020106 22 0 0.0 0.0 0.00 1.30 1.30 93 1012.2
20260906014558 22 0 0.0 1.6 0.00 1.30 1.30 93 1012.2
20260906013050 23 19 0.0 0.0 0.00 1.30 1.30 93 1012.1
20260906011557 23 0 0.0 0.0 0.00 1.30 1.30 93 1011.7
20260906010106 23 0 0.0 0.0 0.00 1.30 1.30 93 1011.7
20260906004600 23 0 0.0 0.0 0.00 1.30 1.30 93 1011.7
20260906003100 23 0 0.0 0.0 0.00 1.30 1.30 92 1011.5
20260906001606 23 0 0.0 0.0 0.00 1.30 1.30 91 1011.4
20260906000059 24 0 0.0 0.0 0.00 1.30 1.30 91 1011.1
20260905234559 25 0 0.0 0.0 0.00 1.30 1.30 90 1011.1
20260905233108 25 0 0.0 0.0 0.00 1.30 1.30 87 1011.0
20260905231554 26 0 0.0 1.6 0.00 1.30 1.30 85 1011.0
20260905230100 26 0 0.0 1.6 0.00 1.30 1.30 84 1011.2
20260905224601 26 0 0.0 1.6 0.00 1.30 1.30 84 1010.8
20260905223054 26 15 0.0 3.2 0.00 1.30 1.30 85 1010.8
20260905221551 25 0 0.0 1.6 0.00 1.30 1.30 88 1010.7
20260905220104 24 0 0.0 0.0 0.00 1.30 1.30 90 1010.7
20260905214556 23 0 0.0 3.2 0.00 1.30 1.30 90 1011.1
20260905213057 23 0 0.0 4.8 0.00 1.30 1.30 91 1011.5
20260905211555 23 0 0.0 1.6 0.00 1.30 1.30 92 1011.5
20260905210107 22 0 0.0 1.6 0.00 1.30 1.30 92 1011.6
20260905204550 22 23 0.0 1.6 0.00 1.30 1.30 93 1011.5
20260905203056 22 9 0.0 1.6 0.00 1.30 1.30 93 1011.1
20260905201604 22 0 0.0 3.2 0.00 1.30 1.30 93 1011.2
20260905200116 22 0 0.0 1.6 0.00 1.30 1.30 93 1012.0
20260905194546 21 345 0.0 0.0 0.51 1.30 1.30 92 1012.0
20260905193051 21 0 0.0 1.6 1.30 1.30 1.30 91 1011.6
20260905191552 21 334 0.0 4.8 1.30 1.30 1.30 90 1011.7
20260905190051 22 0 1.6 25.7 1.30 1.30 1.30 85 1011.5
20260905184609 25 15 4.8 32.2 0.79 0.79 0.79 77 1013.6
20260905183053 35 0 1.6 8.0 0.00 0.00 0.00 51 1011.5
20260905181607 36 0 0.0 12.9 0.00 0.00 0.00 46 1011.0
20260905180059 36 219 1.6 12.9 0.00 0.00 0.00 50 1011.6
20260905174600 36 94 0.0 3.2 0.00 0.00 0.00 49 1011.9
20260905173057 36 333 0.0 6.4 0.00 0.00 0.00 52 1012.2
20260905171604 36 0 0.0 3.2 0.00 0.00 0.00 51 1012.5
20260905170100 35 86 0.0 4.8 0.00 0.00 0.00 56 1012.8
20260905164555 35 212 1.6 12.9 0.00 0.00 0.00 54 1012.9
20260905163054 35 239 3.2 8.0 0.00 0.00 0.00 54 1013.2
20260905161550 34 159 3.2 9.7 0.00 0.00 0.00 55 1013.2
20260905160058 34 212 1.6 6.4 0.00 0.00 0.00 56 1013.3
20260905154557 33 203 1.6 6.4 0.00 0.00 0.00 60 1013.5
20260905153051 32 126 1.6 6.4 0.00 0.00 0.00 61 1013.5
20260905151602 32 188 3.2 6.4 0.00 0.00 0.00 66 1013.5
20260905150055 32 219 1.6 3.2 0.00 0.00 0.00 68 1013.6
20260905144555 31 140 0.0 3.2 0.00 0.00 0.00 70 1013.6
20260905143050 30 156 1.6 6.4 0.00 0.00 0.00 73 1013.6
20260905141550 30 244 0.0 3.2 0.00 0.00 0.00 72 1013.7
20260905140059 30 152 0.0 3.2 0.00 0.00 0.00 74 1013.7
20260905134557 30 0 0.0 1.6 0.00 0.00 0.00 74 1013.9
20260905133051 28 0 0.0 1.6 0.00 0.00 0.00 78 1013.9
20260905131556 27 0 0.0 1.6 0.00 0.00 0.00 85 1014.1
20260905130057 25 0 0.0 1.6 0.00 0.00 0.00 89 1014.1
20260905124551 23 0 0.0 0.0 0.00 0.00 0.00 94 1014.3
20260905123106 23 0 0.0 0.0 0.00 0.00 0.00 94 1014.1
20260905121554 22 0 0.0 0.0 0.00 0.00 0.00 94 1014.1
20260905114608 22 0 0.0 0.0 0.00 0.00 0.00 94 1014.0
20260905113051 22 0 0.0 0.0 0.00 0.00 0.00 94 1013.6
20260905111605 22 0 0.0 0.0 0.00 0.00 0.00 94 1013.3
20260905104558 22 0 0.0 0.0 0.00 0.00 0.00 93 1012.9
20260905103101 22 0 0.0 0.0 0.00 0.00 0.00 93 1012.8
20260905101552 22 0 0.0 0.0 0.00 0.00 0.00 93 1012.9
20260905100105 22 0 0.0 0.0 0.00 0.00 0.00 93 1012.6
20260905094605 22 0 0.0 0.0 0.00 0.00 0.00 93 1012.7
20260905093102 22 0 0.0 1.6 0.00 0.00 0.00 93 1012.8
20260905091600 22 0 0.0 0.0 0.00 0.00 0.00 92 1012.9